Caldwell, NJ

11:56 AM EST on November 13, 2019 (GMT -0500)
Essex County

Weather History for KCDW - September, 2019

Change the Weather History Date:

Sunday, September 29, 2019

  Actual Average Record
Temperature  
Mean Temperature 73 °F -  
Max Temperature 82 °F 69 °F 82 °F (1954)
Min Temperature 63 °F 46 °F 32 °F (1957)
Cooling Degree Days 8    
Growing Degree Days 23 (Base 50)    
Moisture  
Dew Point 53 °F    
Average Humidity 56    
Maximum Humidity 93    
Minimum Humidity 16    
Precipitation  
Precipitation 0.00 in - - ()
Sea Level Pressure  
Sea Level Pressure 30.24 in    
Wind  
Wind Speed 3 mph ()    
Max Wind Speed 10 mph    
Max Gust Speed 15 mph    
Visibility 9.6 miles    
Events      
Averages and records for this station are not official NWS values.
T = Trace of Precipitation, MM = Missing Value Source: Averaged Metar Reports

Daily Weather History Graph

Daily Weather History Graph

Search for Another Location

Airport or City:

Astronomy

Sep. 29, 2019 Rise Set
Actual Time 6:51 AM EDT 6:42 PM EDT
Civil Twilight 6:24 AM EDT 7:10 PM EDT
Nautical Twilight 5:52 AM EDT 7:41 PM EDT
Astronomical Twilight 5:19 AM EDT 8:14 PM EDT
Moon 7:38 AM EDT (9/29) 7:41 PM EDT (9/29)
Length of Visible Light 12h 46m
Length of Day
11h 51m
New Moon, 1% of the Moon is Illuminated
Sep 29
New Moon
Oct 5
First Quarter
Oct 13
Full
Oct 21
Last Quarter
Oct 27
New

Hourly Weather History & Observations

Time (EDT) Temp. Heat Index Dew Point Humidity Pressure Visibility Wind Dir Wind Speed Gust Speed Precip Events Conditions
12:53 AM 73.9 °F - 70.0 °F 87% 30.10 in 9.0 mi Calm Calm - N/A   Clear
1:53 AM 71.1 °F - 68.0 °F 90% 30.12 in 7.0 mi Calm Calm - N/A   Clear
2:53 AM 70.0 °F - 68.0 °F 93% 30.12 in 6.0 mi Calm Calm - N/A   Clear
3:53 AM 69.1 °F - 66.9 °F 93% 30.14 in 8.0 mi SSW 4.6 mph - N/A   Clear
4:53 AM 70.0 °F - 64.9 °F 84% 30.16 in 10.0 mi Calm Calm - N/A   Clear
5:53 AM 69.1 °F - 64.9 °F 87% 30.18 in 10.0 mi Calm Calm - N/A   Clear
6:53 AM 70.0 °F - 64.0 °F 81% 30.19 in 10.0 mi NW 3.5 mph - N/A   Clear
7:53 AM 71.1 °F - 64.9 °F 81% 30.22 in 10.0 mi NE 3.5 mph - N/A   Clear
8:48 AM 71.6 °F - 64.4 °F 78% 30.23 in 10.0 mi Variable 5.8 mph - N/A   Mostly Cloudy
8:53 AM 72.0 °F - 64.0 °F 76% 30.24 in 10.0 mi Variable 4.6 mph - N/A   Mostly Cloudy
9:53 AM 72.0 °F - 62.1 °F 71% 30.27 in 10.0 mi Variable 5.8 mph - N/A   Overcast
10:53 AM 73.9 °F - 57.0 °F 55% 30.28 in 10.0 mi NE 9.2 mph - N/A   Overcast
11:25 AM 75.0 °F - 57.0 °F 53% 30.27 in 10.0 mi ENE 8.1 mph - N/A   Mostly Cloudy
11:53 AM 77.0 °F - 57.0 °F 50% 30.28 in 10.0 mi NNE 3.5 mph - N/A   Clear
12:53 PM 80.1 °F 80.0 °F 54.0 °F 40% 30.27 in 10.0 mi NE 8.1 mph 15.0 mph N/A   Clear
1:53 PM 81.0 °F - 51.1 °F 35% 30.25 in 10.0 mi NNE 6.9 mph - N/A   Clear
2:53 PM 82.0 °F - 46.0 °F 28% 30.25 in 10.0 mi NNE 5.8 mph - N/A   Clear
4:53 PM 79.0 °F - 37.0 °F 22% 30.25 in 10.0 mi ENE 10.4 mph - N/A   Clear
5:53 PM 75.9 °F - 27.0 °F 16% 30.26 in 10.0 mi ENE 9.2 mph - N/A   Clear
6:53 PM 72.0 °F - 28.9 °F 20% 30.28 in 10.0 mi NE 4.6 mph - N/A   Clear
7:53 PM 69.1 °F - 34.0 °F 27% 30.30 in 10.0 mi NE 4.6 mph - N/A   Clear
8:53 PM 66.9 °F - 37.0 °F 33% 30.31 in 10.0 mi NNE 4.6 mph - N/A   Clear
9:53 PM 64.9 °F - 36.0 °F 34% 30.31 in 10.0 mi NNE 3.5 mph - N/A   Clear
10:53 PM 64.0 °F - 37.0 °F 37% 30.32 in 10.0 mi NNE 4.6 mph - N/A   Clear
11:53 PM 63.0 °F - 39.0 °F 41% 30.32 in 10.0 mi NE 3.5 mph - N/A   Clear